TimeCST,TemperatureF,Dew PointF,Humidity,Sea Level PressureIn,VisibilityMPH,Wind Direction,Wind SpeedMPH,Gust SpeedMPH,PrecipitationIn,Events,Conditions,WindDirDegrees,DateUTC
12:58 AM,37.4,28.4,70,30.42,10.0,Calm,Calm,-,N/A,,Clear,0,2013-12-31 06:58:00
1:58 AM,36.9,28.0,70,30.43,10.0,NE,2.3,-,N/A,,Clear,40,2013-12-31 07:58:00
2:58 AM,36.9,27.9,70,30.43,10.0,ENE,3.5,-,N/A,,Clear,60,2013-12-31 08:58:00
3:58 AM,37.0,28.9,73,30.40,10.0,NNW,6.9,-,N/A,,Clear,340,2013-12-31 09:58:00
4:58 AM,36.3,29.3,76,30.43,10.0,NW,5.8,-,N/A,,Partly Cloudy,320,2013-12-31 10:58:00
5:58 AM,36.5,29.5,76,30.43,10.0,North,6.9,-,N/A,,Clear,350,2013-12-31 11:58:00
6:58 AM,37.0,27.5,68,30.43,10.0,North,8.1,-,N/A,,Partly Cloudy,350,2013-12-31 12:58:00
7:58 AM,37.4,28.4,70,30.47,10.0,NW,1.2,-,N/A,,Partly Cloudy,320,2013-12-31 13:58:00
8:58 AM,39.2,29.5,68,30.47,10.0,North,6.9,-,N/A,,Partly Cloudy,360,2013-12-31 14:58:00
9:58 AM,42.3,24.3,49,30.47,10.0,NNE,8.1,-,N/A,,Partly Cloudy,30,2013-12-31 15:58:00
10:58 AM,44.1,23.0,43,30.46,10.0,NNE,4.6,-,N/A,,Scattered Clouds,30,2013-12-31 16:58:00
11:58 AM,45.5,23.0,41,30.44,10.0,North,6.9,-,N/A,,Partly Cloudy,10,2013-12-31 17:58:00
12:58 PM,48.4,24.4,39,30.38,10.0,Variable,5.8,-,N/A,,Partly Cloudy,0,2013-12-31 18:58:00
1:58 PM,50.0,23.2,35,30.36,10.0,North,1.2,-,N/A,,Partly Cloudy,360,2013-12-31 19:58:00
2:58 PM,50.2,24.6,37,30.35,10.0,SSE,2.3,-,N/A,,Partly Cloudy,150,2013-12-31 20:58:00
3:58 PM,49.6,24.8,38,30.33,10.0,SE,5.8,-,N/A,,Mostly Cloudy,130,2013-12-31 21:58:00
4:58 PM,48.2,26.2,42,30.33,10.0,SSE,3.5,-,N/A,,Overcast,150,2013-12-31 22:58:00
5:58 PM,46.0,27.9,49,30.32,10.0,ESE,2.3,-,N/A,,Overcast,120,2013-12-31 23:58:00
6:58 PM,43.3,27.5,54,30.32,10.0,Calm,Calm,-,N/A,,Clear,0,2014-01-01 00:58:00
7:58 PM,38.3,28.8,69,30.31,10.0,ESE,5.8,-,N/A,,Clear,120,2014-01-01 01:58:00
8:58 PM,42.8,29.7,60,30.30,10.0,SSE,3.5,-,N/A,,Overcast,160,2014-01-01 02:58:00
9:58 PM,42.4,29.3,60,30.30,10.0,SW,2.3,-,N/A,,Clear,230,2014-01-01 03:58:00
10:58 PM,38.8,30.2,71,30.29,10.0,South,2.3,-,N/A,,Clear,190,2014-01-01 04:58:00
11:58 PM,40.5,30.0,66,30.26,10.0,SW,2.3,-,N/A,,Partly Cloudy,220,2014-01-01 05:58:00